Regional Weather Roundup
Issued by NWS

Home | Current Version | Previous Version | Graphics & Text | Print | Product List | Glossary On
Versions: 1 2 3 4 5 6 7 8 9 10 11 12 13 14 15 16 17 18 19 20 21 22 23 24 25 26 27 28 29 30 31 32 33 34 35 36 37 38 39 40 41 42 43 44 45 46 47 48 49 50
794
ASUS44 KLIX 282010
RWRLA
LOUISIANA WEATHER ROUNDUP
NATIONAL WEATHER SERVICE NEW ORLEANS LA
200 PM CST SUN DEC 28 2014

NOTE: "FAIR" INDICATES FEW OR NO CLOUDS BELOW 12,000 FEET WITH NO
      SIGNIFICANT WEATHER AND/OR OBSTRUCTIONS TO VISIBILITY.
      SKY/WX - SKY CONDITION AND SIGNIFICANT WEATHER.
      TMP - AIR TEMPERATURE.    DP   - DEWPOINT TEMPERATURE.
      RH  - RELATIVE HUMIDITY.  PRES - PRESSURE.
      HX  - HEAT INDEX.         WCI  - WIND CHILL INDEX.

*  THESE STATIONS ARE NOT NWS OR FAA STATIONS AND ARE NOT UNDER
   NWS QUALITY CONTROL.

LAZ040-048-061>063-065-066-069-282100-
SOUTHEAST LOUISIANA

CITY           SKY/WX    TMP DP  RH WIND       PRES   REMARKS
N.O. AUDUBON     N/A     63  61  93 MISG        N/A
N.O. INTL ARPT CLOUDY    60  57  89 NW6       30.05R
N.O. LAKEFRONT CLOUDY    60  57  89 W10       30.05S
N.O. DOWNTOWN* CLOUDY    61  55  82 NW5       30.05S
SLIDELL        CLOUDY    66  61  84 VRB5      30.02F
BATON ROUGE    CLOUDY    58  51  78 NE6       30.05F
BOOTHVILLE     PTSUNNY   68  67  96 SW7       30.03S
BELLE CHASSE   CLOUDY    63  59  87 VRB6      30.03F
BOGALUSA*        N/A     62  56  83 N9        30.06R
GALLIANO*      MOCLDY    71  67  87 MISG      30.03S
NEW ROADS*     CLOUDY    52  50  92 NW7       30.09S
GONZALES*      CLOUDY    59  57  93 NW8       30.05F
HAMMOND*       NOT AVBL
HOUMA*         NOT AVBL
PORT FOURCHON* FOG       68  66  94 CALM      30.06F VSB 1/4

$$

LAZ041-044-053-054-282100-
SOUTHWEST LOUISIANA

CITY           SKY/WX    TMP DP  RH WIND       PRES   REMARKS
LAKE CHARLES   LGT RAIN  52  50  93 NW6       30.11F
LAFAYETTE      CLOUDY    54  50  86 N8        30.08S
PATTERSON      CLOUDY    61  55  82 NE7       30.05F
SALT POINT       N/A     73  58  59 N6        30.01F
NEW IBERIA     CLOUDY    57  51  80 N10       30.06F
CHENAULT AIRPK RAIN      52  50  93 NW5       30.11F

$$

LAZ027-028-282100-
CENTRAL LOUISIANA

CITY           SKY/WX    TMP DP  RH WIND       PRES   REMARKS
FORT POLK      LGT RAIN  46  46  97 N3        30.11F VSB 1/2
ALEXANDRIA INT RAIN      47  46  97 N5        30.11S FOG
ALEXANDRIA     LGT RAIN  47  45  93 CALM      30.12S

$$

LAZ001-002-282100-
NORTHWEST LOUISIANA

CITY           SKY/WX    TMP DP  RH WIND       PRES   REMARKS
SHREVEPORT     LGT RAIN  42  40  92 N7        30.14F
BARKSDALE AFB  LGT RAIN  42  42  99 N6        30.15F
DTN SHREVEPORT LGT RAIN  41  39  93 NW3       30.15F

$$

LAZ014-016-282100-
NORTHEAST LOUISIANA

CITY           SKY/WX    TMP DP  RH WIND       PRES   REMARKS
MONROE         LGT RAIN  45  43  93 N9        30.16S
TALLULAH       LGT RAIN  46  43  89 NE6       30.13F

$$




USA.gov is the U.S. government's official web portal to all federal, state and local government web resources and services.